Regional Weather Roundup
Issued by NWS

Home | Current Version | Previous Version | Graphics & Text | Print | Product List | Glossary On
Versions: 1 2 3 4 5 6 7 8 9 10 11 12 13 14 15 16 17 18 19 20 21 22 23 24 25 26 27 28 29 30 31 32 33 34 35 36 37 38 39 40 41 42 43 44 45 46 47 48 49 50
000
ASUS43 KLOT 081403
RWRIL

ILLINOIS REGIONAL WEATHER ROUNDUP
NATIONAL WEATHER SERVICE CHICAGO/ROMEOVILLE IL
800 AM CST MON FEB 08 2016

NOTE: "FAIR" INDICATES FEW OR NO CLOUDS BELOW 12,000 FEET WITH NO
SIGNIFICANT WEATHER AND/OR OBSTRUCTIONS TO VISIBILITY.

* THESE STATIONS ARE NOT UNDER NWS QUALITY CONTROL. THEY ALSO MAY NOT
  REPORT WEATHER SUCH AS PRECIPITATION OR FOG.

ILZ001-002-007-009-015-016-024-081500-
NORTHWEST ILLINOIS

CITY           SKY/WX    TMP DP  RH WIND       PRES   REMARKS
MOLINE         LGT SNOW  20  13  74 W13       29.76R WCI   7
STERLING*      CLOUDY    21  14  73 W20       29.69S WCI   6
$$

ILZ003-004-008-010-011-017-018-081500-
NORTH CENTRAL ILLINOIS

CITY           SKY/WX    TMP DP  RH WIND       PRES   REMARKS
ROCKFORD       CLOUDY    25  19  78 W14       29.68R WCI  13
FREEPORT*      LGT SNOW  21  18  88 W10       29.70R WCI  10
DE KALB*       CLOUDY    27  22  83 W16       29.66R WCI  14
$$

ILZ005-006-012>014-019>023-081500-
NORTHEAST ILLINOIS

CITY           SKY/WX    TMP DP  RH WIND       PRES   REMARKS
CHICAGO-OHARE  FLURRIES  30  24  78 W12       29.63R WCI  20
CHICAGO-MIDWAY FLURRIES  32  23  69 W10       29.64R WCI  24
AURORA         CLOUDY    28  22  78 W17       29.66R WCI  16
LANSING*       MIX PCPN  32  30  93 W9        29.64R WCI  24
WAUKEGAN       CLOUDY    29  26  89 W8G17     29.61R WCI  21
DUPAGE AIRPORT CLOUDY    28  20  71 W13       29.64R WCI  17
WHEELING       CLOUDY    30  23  75 W10       29.64R WCI  21
NORTHERLY ISL    N/A     32  27  82 W10         N/A  WCI  24
$$

LMZ740>746-081500-
SOUTHERN LAKE MICHIGAN

STATION/POSITION SKY/WX   TEMP    WIND        PRES    VSBY  WAVE
                          AIR SEA DIR/SP/G                  HT/PER
                          (F)     (DEG/KT/KT) (MB)    (MI)  (FT/S)
HARRISON CRIB              33     260/ 12/ 14   N/A
BURNHAM HARBOR             32     240/  5/ 15   N/A
CALUMET HARBOR             32     230/  6/ 10 1002.8S
BURNS HARBOR               32     210/  9/ 12 1004.1F
MICHIGAN CITY              30     190/  9/ 10   N/A
$$

ILZ025>027-034>036-040-047-049-050-058-095>099-081500-
WEST-CENTRAL ILLINOIS

CITY           SKY/WX    TMP DP  RH WIND       PRES   REMARKS
QUINCY         CLOUDY    22  15  75 NW18      29.83R WCI   7
MACOMB*        CLOUDY    22  16  79 NW20G26   29.81S WCI   7
$$

ILZ028>032-037-038-041>044-048-051>054-059>061-081500-
CENTRAL ILLINOIS

CITY           SKY/WX    TMP DP  RH WIND       PRES   REMARKS
BLOOMINGTON    CLOUDY    25  20  81 W18G31    29.72R WCI  12
DECATUR        FLURRIES  29  24  82 NW15G28   29.73R WCI  18
PEORIA         CLOUDY    22  15  75 NW14G22   29.76S HAZE    WCI   9
LINCOLN*       CLOUDY    26  21  79 NW13G20   29.76R WCI  15
SPRINGFIELD    LGT SNOW  26  22  84 NW16      29.78R VSB 3/4 WCI  14
TAYLORVILLE    NOT AVBL
$$

ILZ033-039-045-046-055>057-062-063-081500-
EAST-CENTRAL ILLINOIS

CITY           SKY/WX    TMP DP  RH WIND       PRES   REMARKS
CHAMPAIGN      FLURRIES  32  28  85 NW14      29.69R WCI  22
MATTOON        CLOUDY    33  30  88 W10       29.69S WCI  25
$$

ILZ079-100>102-081500-
SOUTHWEST ILLINOIS

CITY           SKY/WX    TMP DP  RH WIND       PRES   REMARKS
BELLEVILLE     LGT RAIN  33  20  59 NW24G31   29.79R WCI  20
CAHOKIA*       FLURRIES  32  16  51 NW23G31   29.82R WCI  19
SPARTA*        CLOUDY    33  19  55 W17G28    29.81R WCI  22
$$

ILZ064>066-069>071-074>076-080>082-084>086-088>090-092>094-081500-
SOUTH-CENTRAL ILLINOIS

CITY           SKY/WX    TMP DP  RH WIND       PRES   REMARKS
CARBONDALE     CLOUDY    35  20  54 NW8       29.81R WCI  29
MARION         CLOUDY    37  25  60 NW17      29.81R WCI  28
MT. VERNON     CLOUDY    36  21  55 W7        29.77R WCI  30
CENTRALIA*     CLOUDY    34  25  70 W17       29.76R WCI  23
SALEM*         CLOUDY    36  26  66 W14G21    29.75S WCI  27
$$

ILZ067-068-072-073-078-083-087-091-081500-
SOUTHEAST ILLINOIS

CITY           SKY/WX    TMP DP  RH WIND       PRES   REMARKS
LAWRENCEVILLE  CLOUDY    34  33  96 W7        29.73F WCI  28
HARRISBURG*    LGT SNOW  33  32  95 NW12G24   29.80R WCI  24
ROBINSON*      CLOUDY    34  32  94 W9        29.73S WCI  26
CARMI*         CLOUDY    35  32  90 W9        29.76S WCI  27
$$

ABBREVIATIONS USED IN REMARKS
   TC - TEMPERATURE IN CELSIUS
  WCI - WIND CHILL INDEX
   HX - HEAT INDEX
  VSB - VISIBILITY
$$





USA.gov is the U.S. government's official web portal to all federal, state and local government web resources and services.